SL-16 DEB, 22387

Orbit data source: Space-Track

SL-16 DEB, 22387 is space debris in LEO originally from a launch on Fri, 25 Dec 1992 UTC launched from the Tyuratam Missile And Space Complex (TTMTR). Debris objects in space refer to the collection of defunct objects orbiting the Earth. Examples of debris include non-operational satellites, rocket bodies, and fragments generated from explosions, collisions, or faulty payload assembly.

Loading next visibility...
Identifier
22387, 1992-093CC
Orbit
LEO
Country
Flag of CISCIS
Related business
Manufacturer
Unknown
Mission
Spacecraft
Bus & Motor
Unknown
Mass
Unknown
Launch date (UTC)
1992-12-25 (33 years ago)
Launch vehicle
Unknown
Launch site
Tyuratam Missile And Space Complex (TTMTR)
Object type
Payload
Rocket body
Debris
Shape & HBR
Unknown shape, 0.1 m
Radar Cross Section
Small (<0.1 m²)

Expand to show TLE details & history
Last TLE update: 9 hours ago

TLE from 9 hours ago
0 SL-16 DEB
1 22387U 92093CC  25352.90744946  .00000824  00000-0  49765-3 0  9993
2 22387  70.8896 308.7572 0102863  70.9466 320.9433 14.06935006681593
Epoch: 2025-12-18T21:46Z
TLE epoch observation values (Epoch: 2025-12-18T21:46:43.633Z)
Latitude
29.30899°
Longitude
-94.52509°
Altitude
815.398 km
Speed
7.478 km/s
True Right ascension
21h 19m 39s
True Declination
29° 09' 49"
Sunlit
Object was in daylight at epoch
Visualization orbit readout
Latitude
Unknown
Longitude
Unknown
Altitude
Unknown
Speed
Unknown
Apparent Right ascension
Unknown
Apparent Declination
Unknown
Sunlit
N/A
Visualization observer readout
Local Sidereal Time
05:42:35
Azimuth
Unknown
Elevation
Unknown
Doppler factor
Unknown
Orbital elements
Apogee altitude
942.357 km
Perigee altitude
793.288 km
Semi-major axis
7,245.959 km
Eccentricity
0.01029
Inclination
70.8896°
RAAN
308.7572°
Arg. of periapsis
70.9466°
True anomaly
320.19313°
Mean anomaly
320.9433°
Eccentric anomaly
320.56897°
Mean motion
3.51884 °/min
Orbital period
102.31 mins
BSTAR
0.00049765
Loading maneuver chart data...
Computing Atmospheric mass density...
Loading historical data...
Loading historical data...
Loading historical data...
Loading historical data...
Loading historical data...
Loading historical data...
Loading historical data...

Documentation

Showing up to 5 results
|